Regional Weather Roundup
Issued by NWS Grand Forks, ND

Home | Current Version | Previous Version | Text Only | Print | Product List | Glossary Off
Versions: 1 2 3 4 5 6 7 8 9 10 11 12 13 14 15 16 17 18 19 20 21 22 23 24 25 26 27 28 29 30 31 32 33 34 35 36 37 38 39 40 41 42 43 44 45 46 47 48 49 50

000
ASUS43 KFGF 230531
RWRFGF
PRAIRIE TO PINES  WEATHER ROUNDUP
NATIONAL WEATHER SERVICE EASTERN NORTH DAKOTA/GRAND FORKS ND
1200 AM CDT FRI JUN 23 2017

 **SATELLITE DATA USED TO AUGMENT SKY COVER AT AUTOMATED STATIONS**
 *****  WEATHER ACROSS EASTERN NORTH DAKOTA  *****

CITY           SKY/WX    TMP DP  RH WIND       PRES   REMARKS
GRAND FORKS    FAIR      60  48  64 W13       29.69F
GRAND FRKS AFB FAIR      60  47  62 NW16G29   29.70F
DEVILS LAKE    FAIR      59  50  72 W18       29.75F
FARGO          FAIR      58  41  53 W7        29.73S
WAHPETON ARPT  FAIR      55  45  67 W10       29.76S
$$

 ***** WEATHER ACROSS CENTRAL AND WESTERN NORTH DAKOTA  *****

CITY           SKY/WX    TMP DP  RH WIND       PRES   REMARKS
BISMARCK       MOCLDY    61  46  57 W15G23    29.91R
MINOT          CLOUDY    59  51  75 W24G33    29.86R
JAMESTOWN      FAIR      60  45  57 NW23      29.80R
MINOT AFB      CLOUDY    57  50  77 NW26G39   29.86R
GARRISON         N/A     55  52  89 NW26G32   29.90R
WILLISTON      CLOUDY    55  48  77 NW24G32   30.03R
DICKINSON      CLOUDY    54  46  74 NW26G36   30.00R
HETTINGER      MOCLDY    53  43  68 NW17      30.05R
$$

 *****  OTHER AIRPORT OBSERVATIONS IN OUR AREA  *****

CITY           SKY/WX    TMP DP  RH WIND       PRES   REMARKS
WALHALLA       NOT AVBL
GRAFTON AIRPOR FAIR      59  50  72 W14       29.70S
VALLEY CITY AR FAIR      59  45  58 NW18G25   29.80R
CANDO          NOT AVBL
CAVALIER APRT  FAIR      59  50  72 W17       29.66F
GWINNER        CLEAR     59  45  58 W5        29.80R
SHEYENNE NWR     N/A     55  42  62 W6        29.95S
ROLLA            N/A     57  54  88 NW24G31   29.75R
 ***** THE ABOVE OBSERVATIONS ARE NON NWS ARE NOT QUALITY
       CONTROLLED AND MAY MIS-REPORT RAIN FOR SNOW...
$$

  *****  WEATHER ACROSS NORTHERN MINNESOTA  *****

CITY           SKY/WX    TMP DP  RH WIND       PRES   REMARKS
FLAG ISLAND    MOCLDY    55  48  76 SW9       29.57F
WARROAD        FAIR      55  48  76 W10G18    29.62F
ROSEAU           N/A     59  48  67 W10G20    29.63S
HALLOCK        MOCLDY    57  50  77 W10       29.65F
THF RVR FALLS  MOCLDY    59  45  59 W12       29.69S
BAUDETTE       MOCLDY    59  45  59 W10       29.61F
WASKISH        FAIR      63  46  55 W17G25    29.64S
CROOKSTON      FAIR      57  46  67 W12       29.71S
STEPHEN NDAWN    N/A     57  46  67 W12         N/A
GREENBUSH NDAW   N/A     55  46  71 W8          N/A
$$
  *****  WEATHER ACROSS CENTRAL AND WEST MINNESOTA  *****

CITY           SKY/WX    TMP DP  RH WIND       PRES   REMARKS
FOSSTON        FAIR      57  43  58 W12       29.71R
BEMIDJI        CLOUDY    59  41  51 W7        29.68S
PARK RAPIDS    FAIR      53  40  61 W8        29.71F
ELBOW LAKE     FAIR      57  45  65 SW8       29.76F
WADENA         FAIR      55  45  67 SW5       29.72F
DETROIT LAKES  FAIR      63  39  42 W10       29.74S
MOORHEAD       FAIR      57  41  54 W9        29.74S
FERGUS FALLS   FAIR      55  45  67 W8        29.73S
MORRIS MN      FAIR      61  52  72 SW8       29.76F
STAPLES        FAIR      57  43  58 SW6       29.73F
$$
  *****  WEATHER ELSEWHERE ACROSS MINNESOTA  *****

CITY           SKY/WX    TMP DP  RH WIND       PRES   REMARKS
DULUTH         FAIR      54  53  97 W8        29.68F
INTRNTL FALLS  CLOUDY    57  44  62 SW3       29.60F
ELY            FAIR      55  43  62 SW6       29.64F
CLOQUET        FAIR      63  54  72 SW8       29.69F
WHEATON        FAIR      61  48  63 SW5       29.78F
BRAINERD       FAIR      58  50  75 S5        29.72F
HIBBING        FAIR      45  44  97 CALM      29.67F
ALEXANDRIA     FAIR      57  50  77 SW8       29.77F
SAINT CLOUD    FAIR      60  55  83 W8        29.75F
MINNEAPOLIS    FAIR      64  58  80 W3        29.75S
$$

  *****  WEATHER ACROSS SOUTH DAKOTA  *****

CITY           SKY/WX    TMP DP  RH WIND       PRES   REMARKS
SIOUX FALLS    FAIR      58  51  78 CALM      29.84S
BROOKINGS      FAIR      58  53  84 CALM      29.84F
WATERTOWN      FAIR      59  55  87 W8        29.83S
HURON          FAIR      60  53  77 W5        29.85S
SISSETON         N/A     61  46  57 W9        29.77F
ABERDEEN       FAIR      53  46  77 W8        29.84R
MITCHELL       FAIR      62  53  72 SW5       29.86S
PIERRE         FAIR      62  42  47 NW14      29.91R
MOBRIDGE       LGT RAIN  66  36  32 NW24G30   29.90R
RAPID CITY     MOCLDY    64  33  31 N32G41    30.06R
$$

  *****  SOME WEATHER IN NEARBY STATES *****

CITY           SKY/WX    TMP DP  RH WIND       PRES   REMARKS
GLASGOW MT     FAIR      54  43  66 NW13      30.14R
GREAT FALLS MT FAIR      49  38  65 SE5       30.29R
CHEYENNE WY    CLOUDY    63  51  65 NE9       30.13R
SCOTTSBLUFF NE CLOUDY    68  46  45 NE12      30.02R
OMAHA NE       CLOUDY    73  63  70 N16       29.78R THUNDER
DES MOINES IA  CLOUDY    71  69  93 NW7       29.70R
DAVENPORT IA   FAIR      75  71  87 S9        29.70F
CHICAGO IL     MOCLDY    78  69  73 S18       29.70F
EAU CLAIRE WI  FAIR      63  63 100 W5        29.72S FOG
LA CROSSE WI   CLOUDY    69  69 100 CALM      29.71S
$$

  *****  SOME NATIONAL WEATHER *****

CITY           SKY/WX    TMP DP  RH WIND       PRES   REMARKS
LA GUARDIA NY  CLOUDY    82  71  69 SW9       29.88F
RALEIGH NC     MOCLDY    74  72  93 SW5       30.06F
ATLANTA GA     MOCLDY    74  72  93 S7        30.05S
NEW ORLEANS LA MOCLDY    80  78  94 S14G22    29.88R
OKLAHOMA CITY  FAIR      75  70  84 S7        29.73R
ALBUQUERQUE NM FAIR      87  24  10 N7        29.94R
SALT LAKE CITY FAIR      75  37  25 S3        30.04R
LOS ANGELES CA CLOUDY    64  61  90 W7        29.87R
BOISE ID       FAIR      69  33  26 NW10      30.09R
SEATTLE WA     FAIR      64  45  49 N12       30.23S
$$

*** WEATHER ACROSS MANITOBA...SASKATCHEWAN AND ONTARIO ***
                ***ONTARIO***

CITY           SKY/WX    TMP DP  RH WIND       PRES   REMARKS
GERALDTON      PTCLDY    54  48  82 SE3       29.58F
THUNDER BAY    MOCLDY    61  50  67 W7        29.59S
SIOUX LOOKOUT  LGT RAIN  55  46  71 W3        29.56S
TORONTO        LGT RAIN  72  68  88 W7        29.75F
BIG TROUT LK   CLOUDY    54  52  94 E5        29.54S
PICKLE LAKE    NOT AVBL
DRYDEN         CLOUDY    54  48  82 SW5       29.56F
KENORA         LGT RAIN  54  48  82 W13G18    29.56F
$$
                *** MANITOBA***

CITY           SKY/WX    TMP DP  RH WIND       PRES   REMARKS
BRANDON        MOCLDY    57  52  82 NW22G30   29.72R
DAUPHIN        CLOUDY    57  54  88 NW18G29   29.72R
ISLAND LAKE    PTCLDY    54  52  94 CALM      29.53S
PILOT MOUND      N/A     57  52  82 W10         N/A
THE PAS        CLOUDY    52  45  76 NW16G25   29.76R
THOMPSON       LGT RAIN  50  46  87 NE12G23   29.68R
WINNIPEG       MOCLDY    55  52  88 W16       29.61R
LYNN LAKE      CLOUDY    46  43  87 N10G20    29.85R
CHURCHILL      CLOUDY    41  37  87 NE22      29.83R
GILLAM         MOCLDY    48  45  87 NE18      29.66R
$$
                ***SASKATCHEWAN***

CITY           SKY/WX    TMP DP  RH WIND       PRES   REMARKS
ESTEVAN        CLOUDY    52  48  87 NW23G32   29.96R
KINDERSLEY     PTCLDY    43  39  87 W5        30.15R
LLOYDMINSTER   PTCLDY    48  39  71 NW7       30.14R
PRINCE ALBERT  PTCLDY    48  41  76 NW12G24   30.01
REGINA         MOCLDY    52  41  66 NW24G31   30.02R
YORKTON        CLOUDY    54  46  76 NW17G30   29.88R
N. BATTLEFORD  CLEAR     41  37  87 N8        30.13R
LA RONGE       CLOUDY    46  39  76 NW15G22   29.99R
SASKATOON      PTCLDY    46  39  76 NW9       30.09R
SWIFT CURRENT  CLOUDY    48  41  76 NW15      30.13R
$$
NOTE: THESE ARE AUTOMATED STATIONS WITH LIMITED QUALITY CONTROL
      "FAIR" INDICATES FEW OR NO CLOUDS BELOW 12,000 FEET WITH NO
      SIGNIFICANT WEATHER AND/OR OBSTRUCTIONS TO VISIBILITY.
      SKY/WX - SKY CONDITION AND SIGNIFICANT WEATHER.
      TMP - AIR TEMPERATURE.    DP   - DEWPOINT TEMPERATURE.
      RH  - RELATIVE HUMIDITY.  PRES - PRESSURE.
      HX  - HEAT INDEX.         WCI  - WIND CHILL INDEX.
$




USA.gov is the U.S. government's official web portal to all federal, state and local government web resources and services.